sat.trackr.live / text

‹ back to catalog

STARLINK-35708

NORAD 66277 · 2025-247N

PAYLOAD ACTIVE UNKNOWN

§ Identity

Operator
Country
US
Launch date
2025-10-31
Launch site
AFWTR
Launch vehicle
Mass (kg)
RCS (m²)

Purposes: comms

External: N2YO · Heavens-Above · Gunter

§ Orbital elements

Epoch: 2026-09-20T13:33:37.940544Z

Period
93.85 min
Inclination
53.1588°
Eccentricity
0.0000758
Mean motion
15.34402828 rev/d
Perigee alt
462.2 km
Apogee alt
463.2 km
Semi-major
6,840.8 km
B*
4.1496e-4
RAAN
1.7508°
Arg perigee
64.9732°
Mean anomaly
295.1349°
Rev number
5,098

§ Raw data

STARLINK-357081 66277U 25247N   26263.56502246  .00013671  00000+0  41496-3 0  99912 66277  53.1588   1.7508 0000758  64.9732 295.1349 15.34402828 50984

JSON: /api/v1/satellites/66277 · /tle

For live sub-satellite position, see the globe view (requires WebGL).

§ Visibility from observer

Set your observer location to see the next 7 days of passes ≥ 10°. The values pass through the URL so the page stays shareable.

No JS? Fill the form by hand. The geolocation button needs JavaScript.